Starlink 32481

operational
NORAD ID: 62320 Int'l Des: 2024-239 Owner: SPXS Country: US Constellation: starlink
LEOCIRCULAR

About Starlink 32481

Description loading...

Live Position

Loading 3D Globe...

Upcoming Passes

Altitude History

Altitude vs Time

uPlot chart will show altitude changes over time

Two-Line Element Set

1 62320U 24239V 25306.49527641 .00029066 00000-0 98909-3 0 9998
2 62320 53.1619 51.6756 0001756 88.9461 271.1741 15.30218236 50093
Epoch: Nov 2, 2025 • Age: 14 hours

Current Status

Altitude 494.7 km
Velocity 7.62 km/s
Sub-Earth Point -52.96°S, 116.41°W
Launch Date Dec 13, 2024
Age 0.8 years
Type internet

Technical Details

Classification Payload
Mass 730.00 kg
Dry Mass 700.00 kg
Total Mass 730.00 kg
Length 0.30 m
Diameter 4.10 m
Span 29.00 m
Shape Box + pan
Manufacturer SPXS
Bus Type Starlink V2M
Phase Status In Orbit
Owner/State SPXS/US

Large Constellations

Loading constellations...